Radiation Dose at Monitoring Post of Fukushima Daini Nuclear Power Station
Date,Time,MP-1(microSv/h),MP-2(microSv/h),MP-3(microSv/h),MP-4(microSv/h),MP-5(microSv/h),MP-6(microSv/h),MP-7(microSv/h),Wind Direction,Wind Velocity(m/s),Rain
2018/05/06,00:00,0.313,0.195,0.319,0.305,0.303,0.159,0.096,south,2.7,No
2018/05/06,00:10,0.313,0.195,0.318,0.305,0.299,0.159,0.097,south-southeast,2.5,No
2018/05/06,00:20,0.311,0.196,0.316,0.304,0.301,0.160,0.097,west-southwest,2.2,No
2018/05/06,00:30,0.315,0.195,0.318,0.304,0.299,0.160,0.097,west,5.7,No
2018/05/06,00:40,0.311,0.195,0.317,0.304,0.300,0.159,0.097,west-southwest,6.4,No
2018/05/06,00:50,0.314,0.196,0.318,0.305,0.300,0.159,0.096,west-southwest,5.4,No
2018/05/06,01:00,0.313,0.195,0.316,0.305,0.298,0.158,0.097,southwest,4.9,No
2018/05/06,01:10,0.313,0.195,0.317,0.305,0.300,0.160,0.097,south-southwest,4.5,No
2018/05/06,01:20,0.313,0.195,0.317,0.304,0.299,0.160,0.096,southwest,3.9,No
2018/05/06,01:30,0.312,0.195,0.316,0.304,0.301,0.160,0.097,south-southwest,3.5,No
2018/05/06,01:40,0.315,0.196,0.319,0.305,0.297,0.159,0.097,south,3.6,No
2018/05/06,01:50,0.310,0.196,0.317,0.302,0.300,0.159,0.096,south,4.5,No
2018/05/06,02:00,0.312,0.196,0.319,0.305,0.298,0.160,0.097,south-southwest,5.0,No
2018/05/06,02:10,0.312,0.195,0.317,0.303,0.299,0.160,0.096,south-southwest,3.8,No
2018/05/06,02:20,0.311,0.195,0.317,0.305,0.300,0.159,0.096,south-southwest,3.5,No
2018/05/06,02:30,0.313,0.195,0.318,0.304,0.296,0.158,0.097,southwest,2.0,No
2018/05/06,02:40,0.312,0.196,0.317,0.303,0.300,0.159,0.096,west-southwest,1.2,No
2018/05/06,02:50,0.314,0.196,0.319,0.305,0.297,0.160,0.097,northwest,1.2,No
2018/05/06,03:00,0.311,0.196,0.317,0.302,0.300,0.159,0.097,north,1.6,No
2018/05/06,03:10,0.313,0.195,0.318,0.304,0.299,0.160,0.096,northwest,1.3,No
2018/05/06,03:20,0.312,0.196,0.318,0.305,0.299,0.160,0.096,west-northwest,2.4,No
2018/05/06,03:30,0.311,0.194,0.316,0.304,0.299,0.159,0.096,west-northwest,3.8,No
2018/05/06,03:40,0.314,0.195,0.318,0.304,0.298,0.159,0.096,west-northwest,3.2,No
2018/05/06,03:50,0.312,0.197,0.317,0.303,0.299,0.159,0.096,west,2.2,No
2018/05/06,04:00,0.312,0.195,0.319,0.304,0.299,0.160,0.097,southeast,1.9,No
2018/05/06,04:10,0.313,0.196,0.318,0.305,0.301,0.159,0.096,southeast,3.1,No
2018/05/06,04:20,0.314,0.195,0.318,0.305,0.299,0.160,0.097,southeast,2.8,No
2018/05/06,04:30,0.312,0.195,0.319,0.306,0.301,0.159,0.096,south,2.5,No
2018/05/06,04:40,0.312,0.195,0.317,0.304,0.298,0.159,0.097,south,2.5,No
2018/05/06,04:50,0.313,0.195,0.319,0.306,0.300,0.159,0.096,south-southwest,3.7,No
2018/05/06,05:00,0.312,0.194,0.318,0.304,0.297,0.160,0.096,south-southwest,5.2,No
2018/05/06,05:10,0.313,0.196,0.318,0.304,0.300,0.160,0.097,south-southwest,5.4,No
2018/05/06,05:20,0.312,0.196,0.319,0.305,0.298,0.159,0.096,south-southwest,6.3,No
2018/05/06,05:30,0.311,0.196,0.318,0.305,0.300,0.159,0.096,southwest,5.7,No
2018/05/06,05:40,0.313,0.195,0.319,0.305,0.299,0.159,0.096,southwest,5.8,No
2018/05/06,05:50,0.312,0.196,0.318,0.303,0.300,0.159,0.097,southwest,6.8,No
2018/05/06,06:00,0.313,0.196,0.318,0.305,0.300,0.158,0.096,south-southwest,7.7,No
2018/05/06,06:10,0.312,0.194,0.317,0.303,0.299,0.160,0.096,south-southwest,8.3,No
2018/05/06,06:20,0.314,0.196,0.318,0.305,0.298,0.158,0.097,south-southwest,7.2,No
2018/05/06,06:30,0.311,0.194,0.316,0.303,0.299,0.160,0.097,south-southwest,7.3,No
2018/05/06,06:40,0.314,0.195,0.318,0.305,0.298,0.158,0.096,south-southwest,6.4,No
2018/05/06,06:50,0.313,0.194,0.315,0.302,0.301,0.158,0.097,south-southwest,4.7,No
2018/05/06,07:00,0.314,0.196,0.319,0.306,0.296,0.159,0.096,southwest,5.5,No
2018/05/06,07:10,0.312,0.194,0.315,0.304,0.299,0.160,0.096,southwest,5.8,No
2018/05/06,07:20,0.312,0.194,0.315,0.301,0.298,0.159,0.097,southwest,5.1,No
2018/05/06,07:30,0.313,0.196,0.318,0.305,0.296,0.159,0.096,south-southwest,4.2,No
2018/05/06,07:40,0.309,0.195,0.316,0.306,0.301,0.159,0.096,southwest,2.3,No
2018/05/06,07:50,0.312,0.194,0.315,0.302,0.298,0.160,0.096,southwest,2.7,No
2018/05/06,08:00,0.312,0.194,0.319,0.300,0.296,0.159,0.097,southwest,3.0,No
2018/05/06,08:10,0.310,0.196,0.318,0.303,0.299,0.158,0.097,southwest,3.0,No
2018/05/06,08:20,0.312,0.196,0.317,0.304,0.300,0.160,0.097,south-southwest,3.1,No
2018/05/06,08:30,0.314,0.195,0.320,0.305,0.297,0.159,0.096,south-southwest,4.8,No
2018/05/06,08:40,0.312,0.193,0.318,0.302,0.295,0.159,0.096,south,4.0,No
2018/05/06,08:50,0.310,0.194,0.318,0.302,0.295,0.158,0.096,south-southwest,5.2,No
2018/05/06,09:00,0.308,0.193,0.320,0.300,0.300,0.160,0.095,south-southwest,7.0,No
2018/05/06,09:10,0.311,0.193,0.316,0.301,0.301,0.160,0.095,south,7.2,No
2018/05/06,09:20,0.313,0.193,0.318,0.301,0.297,0.159,0.096,south,7.6,No
2018/05/06,09:30,0.314,0.194,0.319,0.301,0.297,0.158,0.097,south,7.4,No
2018/05/06,09:40,0.312,0.195,0.319,0.302,0.296,0.159,0.097,south,8.5,No
2018/05/06,09:50,0.311,0.195,0.316,0.302,0.296,0.159,0.096,south,8.6,No
2018/05/06,10:00,0.310,0.193,0.317,0.304,0.296,0.160,0.095,south,8.8,No
2018/05/06,10:10,0.309,0.197,0.320,0.307,0.301,0.160,0.096,south,8.8,No
2018/05/06,10:20,0.313,0.197,0.317,0.307,0.301,0.160,0.097,south,8.9,No
2018/05/06,10:30,0.315,0.195,0.315,0.304,0.299,0.159,0.097,south,7.7,No
2018/05/06,10:40,0.313,0.195,0.318,0.303,0.296,0.160,0.096,south,7.9,No
2018/05/06,10:50,0.310,0.196,0.320,0.306,0.301,0.160,0.097,south,8.5,No
2018/05/06,11:00,0.313,0.197,0.318,0.307,0.300,0.159,0.098,south,10.0,No
2018/05/06,11:10,0.314,0.196,0.316,0.304,0.299,0.159,0.097,south,8.3,No
2018/05/06,11:20,0.312,0.195,0.317,0.303,0.298,0.161,0.097,south,8.7,No
2018/05/06,11:30,0.312,0.196,0.321,0.305,0.296,0.159,0.097,south,10.3,No
2018/05/06,11:40,0.309,0.197,0.318,0.308,0.299,0.159,0.098,south,12.6,No
2018/05/06,11:50,0.312,0.194,0.316,0.304,0.300,0.160,0.097,south,14.8,No
2018/05/06,12:00,0.315,0.195,0.317,0.303,0.299,0.160,0.097,south,13.6,No
2018/05/06,12:10,0.312,0.197,0.322,0.307,0.297,0.160,0.097,south,13.6,No
2018/05/06,12:20,0.311,0.197,0.320,0.307,0.300,0.159,0.097,south,12.5,No
2018/05/06,12:30,0.313,0.195,0.318,0.303,0.300,0.160,0.096,south,12.0,No
2018/05/06,12:40,0.316,0.194,0.316,0.303,0.299,0.160,0.097,south,13.4,No
2018/05/06,12:50,0.314,0.195,0.317,0.303,0.297,0.159,0.098,south,12.3,No
2018/05/06,13:00,0.312,0.196,0.316,0.302,0.297,0.159,0.096,south,13.7,No
2018/05/06,13:10,0.311,0.197,0.316,0.307,0.298,0.162,0.097,south,14.6,No
2018/05/06,13:20,0.314,0.196,0.319,0.306,0.302,0.160,0.097,south,13.3,No
2018/05/06,13:30,0.317,0.195,0.321,0.305,0.300,0.160,0.097,south,13.7,No
2018/05/06,13:40,0.312,0.195,0.319,0.303,0.297,0.160,0.097,south,12.6,No
2018/05/06,13:50,0.312,0.197,0.318,0.303,0.297,0.160,0.097,south,12.5,No
2018/05/06,14:00,0.312,0.196,0.318,0.306,0.299,0.160,0.097,south,12.3,No
2018/05/06,14:10,0.317,0.196,0.317,0.307,0.302,0.160,0.096,south,13.4,No
2018/05/06,14:20,0.315,0.197,0.322,0.306,0.300,0.160,0.097,south,10.9,No
2018/05/06,14:30,0.312,0.197,0.321,0.306,0.298,0.160,0.097,south,11.2,No
2018/05/06,14:40,0.312,0.196,0.318,0.308,0.301,0.160,0.096,south,11.7,No
2018/05/06,14:50,0.316,0.196,0.318,0.304,0.301,0.159,0.097,south,12.6,No
2018/05/06,15:00,0.314,0.198,0.323,0.306,0.299,0.161,0.096,south,12.0,No
2018/05/06,15:10,0.312,0.195,0.319,0.308,0.300,0.159,0.096,south,11.2,No
2018/05/06,15:20,0.315,0.197,0.319,0.307,0.302,0.160,0.098,south,10.7,No
2018/05/06,15:30,0.314,0.196,0.323,0.309,0.299,0.161,0.097,south,11.7,No
2018/05/06,15:40,0.313,0.198,0.318,0.307,0.300,0.160,0.097,south,11.7,No
2018/05/06,15:50,0.316,0.197,0.322,0.306,0.301,0.161,0.097,south,10.9,No
2018/05/06,16:00,0.313,0.196,0.320,0.308,0.299,0.160,0.098,south,9.2,No
2018/05/06,16:10,0.316,0.198,0.320,0.305,0.303,0.161,0.097,south,7.5,No
2018/05/06,16:20,0.314,0.195,0.321,0.308,0.300,0.161,0.097,south,7.4,No
2018/05/06,16:30,0.315,0.197,0.319,0.305,0.302,0.160,0.097,south-southwest,8.1,No
2018/05/06,16:40,0.315,0.196,0.322,0.307,0.301,0.161,0.097,south-southwest,6.2,No
2018/05/06,16:50,0.312,0.197,0.320,0.306,0.300,0.161,0.098,south-southwest,5.4,No
2018/05/06,17:00,0.316,0.197,0.321,0.307,0.302,0.160,0.096,south-southwest,3.8,No
2018/05/06,17:10,0.313,0.197,0.321,0.308,0.298,0.161,0.098,south-southwest,2.5,No
2018/05/06,17:20,0.314,0.198,0.319,0.306,0.302,0.159,0.097,southwest,0.8,No
2018/05/06,17:30,0.317,0.196,0.321,0.308,0.300,0.162,0.098,south-southwest,1.6,No
2018/05/06,17:40,0.314,0.196,0.319,0.309,0.298,0.160,0.097,south-southwest,2.4,No
2018/05/06,17:50,0.317,0.196,0.321,0.306,0.302,0.161,0.097,southwest,1.7,No
2018/05/06,18:00,0.313,0.199,0.320,0.308,0.301,0.161,0.098,southwest,2.3,No
2018/05/06,18:10,0.316,0.197,0.321,0.304,0.300,0.160,0.097,west-southwest,1.4,No
2018/05/06,18:20,0.315,0.197,0.322,0.307,0.301,0.161,0.098,-,CALM,No
2018/05/06,18:30,0.315,0.198,0.320,0.307,0.301,0.159,0.097,-,CALM,No
2018/05/06,18:40,0.317,0.198,0.321,0.308,0.302,0.162,0.097,-,CALM,No
2018/05/06,18:50,0.314,0.197,0.319,0.308,0.300,0.161,0.097,-,CALM,No
2018/05/06,19:00,0.316,0.198,0.322,0.307,0.303,0.162,0.097,southeast,1.3,No
2018/05/06,19:10,0.313,0.197,0.320,0.309,0.299,0.161,0.098,south-southeast,1.4,No
2018/05/06,19:20,0.316,0.197,0.322,0.307,0.302,0.161,0.097,southwest,0.8,No
2018/05/06,19:30,0.314,0.197,0.320,0.309,0.300,0.161,0.099,-,CALM,No
2018/05/06,19:40,0.316,0.197,0.322,0.306,0.302,0.161,0.097,north-northeast,0.6,No
2018/05/06,19:50,0.315,0.198,0.321,0.309,0.300,0.161,0.098,north,1.7,No
2018/05/06,20:00,0.314,0.197,0.324,0.306,0.301,0.160,0.098,north,2.9,No
2018/05/06,20:10,0.316,0.198,0.321,0.309,0.302,0.161,0.098,north-northeast,2.7,No
2018/05/06,20:20,0.313,0.197,0.321,0.308,0.301,0.161,0.097,north-northeast,2.2,No
2018/05/06,20:30,0.318,0.198,0.322,0.308,0.303,0.161,0.098,north-northeast,2.3,No
2018/05/06,20:40,0.313,0.198,0.320,0.308,0.300,0.160,0.097,north-northeast,1.8,No
2018/05/06,20:50,0.317,0.198,0.321,0.306,0.301,0.161,0.097,north-northeast,1.5,No
2018/05/06,21:00,0.315,0.197,0.321,0.308,0.299,0.160,0.098,north-northeast,1.8,No
2018/05/06,21:10,0.317,0.199,0.322,0.307,0.302,0.161,0.098,east-northeast,0.7,No
2018/05/06,21:20,0.316,0.196,0.320,0.309,0.300,0.160,0.097,east-northeast,0.9,No
2018/05/06,21:30,0.315,0.198,0.322,0.307,0.301,0.161,0.098,northeast,0.7,No
2018/05/06,21:40,0.314,0.196,0.319,0.309,0.302,0.160,0.097,north-northeast,0.8,No
2018/05/06,21:50,0.317,0.197,0.323,0.307,0.300,0.161,0.098,north-northeast,1.0,No
2018/05/06,22:00,0.314,0.198,0.320,0.309,0.302,0.161,0.098,north-northeast,2.1,No
2018/05/06,22:10,0.316,0.195,0.323,0.307,0.300,0.161,0.099,north,1.4,No
2018/05/06,22:20,0.313,0.198,0.320,0.308,0.302,0.161,0.098,north-northeast,1.8,No
2018/05/06,22:30,0.315,0.196,0.322,0.306,0.299,0.161,0.097,north-northeast,2.1,No
2018/05/06,22:40,0.314,0.197,0.321,0.309,0.303,0.161,0.096,north-northeast,1.9,No
2018/05/06,22:50,0.316,0.197,0.321,0.307,0.299,0.160,0.098,north-northeast,1.2,No
2018/05/06,23:00,0.314,0.198,0.320,0.308,0.303,0.160,0.097,north,1.9,No
2018/05/06,23:10,0.315,0.197,0.323,0.308,0.300,0.161,0.097,north,1.5,No
2018/05/06,23:20,0.315,0.197,0.320,0.307,0.304,0.160,0.098,north,1.2,No
2018/05/06,23:30,0.317,0.197,0.323,0.309,0.300,0.161,0.098,-,CALM,No
2018/05/06,23:40,0.315,0.199,0.322,0.306,0.301,0.161,0.097,north-northeast,0.9,No
2018/05/06,23:50,0.316,0.196,0.322,0.309,0.300,0.160,0.097,north-northeast,1.8,No
